Date String (YYYY-MM-DD hh:mm:ss) UTC,Instrument flags,Ambient pressure (hPa),Sample flow (lpm),Bypass flow (lpm),Sample temperature (°C),Ambient temperature (°C),ASC tube jacket temperature (°C),LED temperature (°C),Box temperature (°C),Sample RH (%),Span deviation,Mass concentration (μg/m³),Mass concentration (μg/m³),Mass concentration (μg/m³)
DateTimeUTC,F1_M11,P_M11,Q1_M11,Q2_M11,T1_M11,T2_M11,T3_M11,T4_M11,T5_M11,U1_M11,ZSPAN_M11,X0_M11,X2_M11,X1_M11
2022-06-23 22:00:00,,0824.3,4.99,0.00,29.0,27.0,00.0,37.7,30.8,12.3,0000.0,0015.98,0006.30,0005.18
2022-06-23 22:01:00,,0824.4,5.00,0.00,29.0,27.2,00.0,37.7,30.8,12.1,0000.0,0016.12,0006.30,0005.18
2022-06-23 22:02:00,,0824.4,5.00,0.00,29.0,27.3,00.0,37.7,30.8,12.1,0000.0,0016.07,0006.32,0005.20
2022-06-23 22:03:00,,0824.4,5.00,0.00,29.0,27.6,00.0,37.7,30.9,12.4,0000.0,0017.13,0006.40,0005.20
2022-06-23 22:04:00,,0824.3,5.00,0.00,29.0,27.8,00.0,37.7,31.0,12.4,0000.0,0017.17,0006.39,0005.19
2022-06-23 22:05:00,,0824.4,4.99,0.00,29.0,28.0,00.0,37.7,31.1,12.5,0000.0,0017.34,0006.39,0005.19
2022-06-23 22:06:00,,0824.4,5.00,0.00,29.1,28.2,00.0,37.8,31.1,11.7,0000.0,0017.81,0006.44,0005.21
2022-06-23 22:07:00,,0824.4,5.00,0.00,29.1,27.9,00.0,37.7,31.1,12.4,0000.0,0017.55,0006.42,0005.22
2022-06-23 22:08:00,,0824.4,5.00,0.00,29.0,27.3,00.0,37.7,30.9,11.9,0000.0,0018.33,0006.42,0005.24
2022-06-23 22:09:00,,0824.4,5.00,0.00,29.0,27.1,00.0,37.7,30.8,12.3,0000.0,0020.41,0006.44,0005.26
2022-06-23 22:10:00,,0824.4,5.00,0.00,29.0,27.1,00.0,37.7,30.8,12.4,0000.0,0021.27,0006.45,0005.27
2022-06-23 22:11:00,,0824.4,4.99,0.00,29.0,27.3,00.0,37.7,30.8,12.9,0000.0,0021.44,0006.49,0005.28
2022-06-23 22:12:00,,0824.5,5.01,0.00,29.0,27.4,00.0,37.7,30.9,12.2,0000.0,0021.13,0006.46,0005.27
2022-06-23 22:13:00,,0824.5,5.00,0.00,29.0,27.7,00.0,37.7,31.0,12.0,0000.0,0020.13,0006.40,0005.27
2022-06-23 22:14:00,,0824.5,4.99,0.00,29.0,27.9,00.0,37.7,31.0,12.2,0000.0,0019.18,0006.32,0005.27
2022-06-23 22:15:00,,0824.4,5.00,0.00,29.1,28.1,00.0,37.8,31.1,11.5,0000.0,0018.45,0006.32,0005.28
2022-06-23 22:16:00,,0824.5,5.00,0.00,29.1,28.2,00.0,37.8,31.1,11.9,0000.0,0018.67,0006.30,0005.28
2022-06-23 22:17:00,,0824.4,5.00,0.00,29.1,27.6,00.0,37.7,31.0,12.8,0000.0,0020.12,0006.27,0005.25
2022-06-23 22:18:00,,0824.4,5.01,0.00,29.0,27.1,00.0,37.7,30.9,12.4,0000.0,0020.30,0006.28,0005.24
2022-06-23 22:19:00,,0824.4,5.00,0.00,29.0,27.0,00.0,37.7,30.8,13.3,0000.0,0020.00,0006.29,0005.23
2022-06-23 22:20:00,,0824.4,5.00,0.00,29.0,27.1,00.0,37.7,30.8,13.1,0000.0,0017.93,0006.31,0005.21
2022-06-23 22:21:00,,0824.4,4.99,0.00,29.0,27.3,00.0,37.7,30.8,12.5,0000.0,0017.35,0006.32,0005.20
2022-06-23 22:22:00,,0824.4,5.01,0.00,29.0,27.5,00.0,37.7,30.9,11.6,0000.0,0017.01,0006.26,0005.19
2022-06-23 22:23:00,,0824.4,5.00,0.00,29.0,27.7,00.0,37.7,31.0,11.7,0000.0,0019.19,0006.33,0005.18
2022-06-23 22:24:00,,0824.4,5.00,0.00,29.1,27.9,00.0,37.8,31.1,11.6,0000.0,0021.11,0006.39,0005.16
2022-06-23 22:25:00,,0824.3,5.00,0.00,29.1,28.1,00.0,37.8,31.1,11.6,0000.0,0021.63,0006.45,0005.15
2022-06-23 22:26:00,,0824.3,5.00,0.00,29.1,28.0,00.0,37.8,31.1,12.4,0000.0,0022.13,0006.48,0005.14
2022-06-23 22:27:00,,0824.3,5.00,0.00,29.1,27.3,00.0,37.7,30.9,12.6,0000.0,0021.61,0006.51,0005.13
2022-06-23 22:28:00,,0824.3,5.00,0.00,29.0,27.0,00.0,37.7,30.8,12.2,0000.0,0019.69,0006.55,0005.13
2022-06-23 22:29:00,,0824.3,5.00,0.00,29.0,27.0,00.0,37.7,30.8,12.5,0000.0,0019.88,0006.55,0005.12
2022-06-23 22:30:00,,0824.3,4.99,0.00,29.0,27.2,00.0,37.7,30.8,13.3,0000.0,0020.51,0006.54,0005.13
2022-06-23 22:31:00,,0824.3,5.01,0.00,29.0,27.3,00.0,37.7,30.9,13.1,0000.0,0020.61,0006.52,0005.12
2022-06-23 22:32:00,,0824.3,5.01,0.00,29.0,27.5,00.0,37.7,30.9,13.2,0000.0,0020.28,0006.49,0005.11
2022-06-23 22:33:00,,0824.3,4.99,0.00,29.0,27.8,00.0,37.7,31.0,13.5,0000.0,0020.00,0006.52,0005.10
2022-06-23 22:34:00,,0824.3,4.99,0.00,29.1,28.0,00.0,37.8,31.1,12.8,0000.0,0018.23,0006.46,0005.10
2022-06-23 22:35:00,,0824.3,4.99,0.00,29.1,28.1,00.0,37.8,31.1,13.1,0000.0,0017.31,0006.44,0005.12
2022-06-23 22:36:00,,0824.3,5.01,0.00,29.1,28.1,00.0,37.8,31.1,13.1,0000.0,0018.35,0006.40,0005.12
2022-06-23 22:37:00,,0824.2,5.00,0.00,29.1,27.4,00.0,37.7,30.9,13.2,0000.0,0018.89,0006.37,0005.11
2022-06-23 22:38:00,,0824.2,5.00,0.00,29.0,27.0,00.0,37.7,30.8,12.9,0000.0,0018.40,0006.30,0005.10
2022-06-23 22:39:00,,0824.2,5.00,0.00,29.0,27.0,00.0,37.7,30.8,12.6,0000.0,0018.24,0006.23,0005.10
2022-06-23 22:40:00,,0824.2,5.00,0.00,29.0,27.1,00.0,37.7,30.8,12.1,0000.0,0017.60,0006.19,0005.09
2022-06-23 22:41:00,,0824.3,5.00,0.00,29.0,27.3,00.0,37.7,30.8,12.3,0000.0,0016.43,0006.19,0005.09
2022-06-23 22:42:00,,0824.2,5.00,0.00,29.0,27.5,00.0,37.7,30.9,12.9,0000.0,0015.86,0006.15,0005.09
2022-06-23 22:43:00,,0824.4,5.01,0.00,29.0,27.7,00.0,37.7,31.0,13.2,0000.0,0016.21,0006.16,0005.10
2022-06-23 22:44:00,,0824.4,5.01,0.00,29.1,27.9,00.0,37.8,31.1,13.6,0000.0,0016.40,0006.17,0005.11
2022-06-23 22:45:00,,0824.3,5.00,0.00,29.1,28.1,00.0,37.8,31.1,12.6,0000.0,0016.01,0006.18,0005.12
2022-06-23 22:46:00,,0824.3,4.99,0.00,29.1,27.8,00.0,37.8,31.1,12.5,0000.0,0015.77,0006.14,0005.12
2022-06-23 22:47:00,,0824.2,5.00,0.00,29.1,27.2,00.0,37.7,30.8,12.9,0000.0,0015.39,0006.12,0005.13
2022-06-23 22:48:00,,0824.2,5.01,0.00,29.0,27.0,00.0,37.7,30.8,13.2,0000.0,0014.49,0006.10,0005.15
2022-06-23 22:49:00,,0824.2,5.00,0.00,29.0,27.1,00.0,37.7,30.8,13.4,0000.0,0014.63,0006.15,0005.16
2022-06-23 22:50:00,,0824.2,5.02,0.00,29.0,27.2,00.0,37.7,30.8,12.2,0000.0,0014.87,0006.17,0005.17
2022-06-23 22:51:00,,0824.1,5.00,0.00,29.0,27.4,00.0,37.7,30.9,11.9,0000.0,0015.92,0006.20,0005.18
2022-06-23 22:52:00,,0824.1,4.99,0.00,29.0,27.6,00.0,37.7,30.9,12.2,0000.0,0016.72,0006.17,0005.18
2022-06-23 22:53:00,,0824.1,5.01,0.00,29.0,27.8,00.0,37.7,31.0,12.4,0000.0,0017.18,0006.19,0005.19
2022-06-23 22:54:00,,0824.2,4.99,0.00,29.1,28.0,00.0,37.8,31.1,13.0,0000.0,0016.56,0006.17,0005.20
2022-06-23 22:55:00,,0824.1,5.00,0.00,29.1,28.2,00.0,37.8,31.1,13.5,0000.0,0016.54,0006.17,0005.21
2022-06-23 22:56:00,,0824.1,5.00,0.00,29.1,28.0,00.0,37.8,31.1,13.0,0000.0,0016.75,0006.21,0005.23
2022-06-23 22:57:00,,0824.1,5.01,0.00,29.1,27.3,00.0,37.7,30.9,13.0,0000.0,0016.42,0006.23,0005.25
2022-06-23 22:58:00,,0824.1,5.00,0.00,29.0,27.0,00.0,37.7,30.8,13.5,0000.0,0015.89,0006.31,0005.27
2022-06-23 22:59:00,,0824.1,5.00,0.00,29.0,27.1,00.0,37.7,30.8,13.7,0000.0,0015.37,0006.35,0005.29
